TimeMDT,TemperatureF,Dew PointF,Humidity,Sea Level PressureIn,VisibilityMPH,Wind Direction,Wind SpeedMPH,Gust SpeedMPH,PrecipitationIn,Events,Conditions,WindDirDegrees,DateUTC
12:55 AM,62.1,43.0,50,29.97,10.0,Calm,Calm,-,N/A,,Clear,0,2013-07-27 06:55:00
1:55 AM,55.0,42.1,62,29.97,10.0,NNW,3.5,-,N/A,,Clear,340,2013-07-27 07:55:00
2:55 AM,55.0,39.9,57,29.96,7.0,WNW,3.5,-,N/A,,Clear,300,2013-07-27 08:55:00
3:55 AM,57.0,42.1,57,29.96,8.0,WSW,3.5,-,N/A,,Clear,240,2013-07-27 09:55:00
4:55 AM,57.9,41.0,53,29.96,8.0,Calm,Calm,-,N/A,,Clear,0,2013-07-27 10:55:00
5:55 AM,57.0,42.1,57,29.97,8.0,Calm,Calm,-,N/A,,Partly Cloudy,0,2013-07-27 11:55:00
6:55 AM,57.9,45.0,62,29.97,4.0,NE,4.6,-,N/A,,Haze,40,2013-07-27 12:55:00
7:55 AM,59.0,44.1,58,29.98,5.0,Calm,Calm,-,N/A,,Haze,0,2013-07-27 13:55:00
8:55 AM,63.0,42.1,46,29.97,7.0,Calm,Calm,-,N/A,,Scattered Clouds,0,2013-07-27 14:55:00
9:55 AM,66.9,42.1,40,29.96,8.0,Calm,Calm,-,N/A,,Mostly Cloudy,0,2013-07-27 15:55:00
10:55 AM,70.0,41.0,35,29.96,8.0,Calm,Calm,-,N/A,,Scattered Clouds,0,2013-07-27 16:55:00
11:55 AM,73.9,41.0,30,29.94,10.0,South,6.9,-,N/A,,Overcast,170,2013-07-27 17:55:00
12:55 PM,75.9,42.1,30,29.92,10.0,South,3.5,-,N/A,,Partly Cloudy,190,2013-07-27 18:55:00
1:55 PM,78.1,39.9,25,29.91,10.0,Calm,Calm,-,0.00,,Scattered Clouds,0,2013-07-27 19:55:00
2:52 PM,80.6,42.8,26,30.05,8.0,ENE,5.8,-,N/A,,Partly Cloudy,60,2013-07-27 20:52:00
2:55 PM,81.0,42.1,25,29.86,9.0,NE,4.6,-,N/A,,Partly Cloudy,40,2013-07-27 20:55:00
3:55 PM,80.1,37.9,22,29.83,10.0,Calm,Calm,-,N/A,,Clear,0,2013-07-27 21:55:00
4:55 PM,80.1,41.0,25,29.80,10.0,SE,4.6,-,0.00,,Scattered Clouds,130,2013-07-27 22:55:00
5:55 PM,81.0,39.9,23,29.77,10.0,SSE,3.5,-,N/A,,Clear,150,2013-07-27 23:55:00
6:55 PM,80.1,46.0,30,29.75,10.0,Variable,3.5,-,N/A,,Scattered Clouds,0,2013-07-28 00:55:00
7:55 PM,79.0,43.0,28,29.75,10.0,NW,6.9,-,N/A,,Mostly Cloudy,320,2013-07-28 01:55:00
8:55 PM,75.0,44.1,33,29.76,10.0,SSE,5.8,-,N/A,,Overcast,150,2013-07-28 02:55:00
9:38 PM,71.6,44.6,38,29.97,10.0,NE,4.6,-,0.00,Thunderstorm,Scattered Clouds,40,2013-07-28 03:38:00
9:45 PM,69.8,48.2,46,29.97,10.0,NE,6.9,-,0.00,,Mostly Cloudy,40,2013-07-28 03:45:00
9:55 PM,70.0,45.0,41,29.78,10.0,East,8.1,-,0.00,,Mostly Cloudy,90,2013-07-28 03:55:00
10:55 PM,71.1,44.1,38,29.79,10.0,South,8.1,16.1,N/A,,Clear,190,2013-07-28 04:55:00
11:55 PM,66.0,46.0,48,29.81,10.0,SSE,4.6,-,N/A,,Scattered Clouds,160,2013-07-28 05:55:00